Location: Arrakis Observatory
(44.1122°N, 95.7153°W)
Time: 05:21:40
(UTC-05:00)

Amateur Radio Satellites - All Passes

Search period start: 01 November 2014 04:51
Search period end: 02 November 2014 03:51
Location: Arrakis Observatory, 44.1122°N, 95.7153°W

Satellite Date Start Highest point End Downlink Frequencies (MHz)
Time Altitude Azimuth
AO-7 01 Nov 04:51:28 04:58:49 33° 96° (E) 05:06:08 29.400 - 29.500 MHz
Oscar 19 01 Nov 04:53:19 04:55:34 13° 303° (WNW) 04:57:50 437.125 CW, 437.150 USB
JAS-1B 01 Nov 04:57:05 05:02:33 25° 300° (WNW) 05:08:45 435.800 - 435.900 CW/SSB
AO-27 01 Nov 05:30:58 05:33:44 15° 303° (WNW) 05:36:31 436.795 MHz FM
RS-15 01 Nov 05:47:36 05:58:37 61° 47° (NE) 06:10:04 29.354 - 29.394 USB, Beacon 29.352 USB
Gurwin Techsat 1B 01 Nov 05:49:53 05:53:22 18° 300° (WNW) 05:56:50 435.225 FM
TMSAT-1 01 Nov 05:55:31 05:59:21 21° 299° (WNW) 06:03:10 436.925 FM
Saudisat 1A 01 Nov 05:56:19 06:00:20 37° 117° (ESE) 06:04:23 436.775 MHz
OPAL 01 Nov 05:59:16 06:04:20 65° 256° (WSW) 06:09:21 ?
STRAND 1 01 Nov 06:19:00 06:23:12 26° 64° (ENE) 06:27:25 ?
Uosat F 01 Nov 06:20:54 06:25:55 66° 288° (WNW) 06:30:54 435.120 FM
JAS-2 01 Nov 06:30:52 06:38:36 56° 99° (E) 06:46:02 435.800 - 435.900 CW/SSB, 435.910 FM
AO-7 01 Nov 06:43:51 06:51:59 60° 295° (WNW) 07:00:07 29.400 - 29.500 MHz
Hamsat 01 Nov 07:02:03 07:06:14 57° 100° (E) 07:10:25 145.90 MHz
Saudisat 1A 01 Nov 07:36:05 07:39:57 30° 316° (NW) 07:43:51 436.775 MHz
STRAND 1 01 Nov 07:57:16 08:02:09 43° 261° (W) 08:07:04 ?
RS-15 01 Nov 08:00:23 08:10:40 45° 250° (WSW) 08:21:24 29.354 - 29.394 USB, Beacon 29.352 USB
MaSat-1 01 Nov 08:05:57 08:08:26 69° 245° (WSW) 08:10:47 437.345 MHz
JAS-2 01 Nov 08:16:17 08:23:15 37° 298° (WNW) 08:30:06 435.800 - 435.900 CW/SSB, 435.910 FM
AO-7 01 Nov 08:38:40 08:43:07 16° 317° (NW) 08:47:34 29.400 - 29.500 MHz
Hamsat 01 Nov 08:39:23 08:41:44 15° 297° (WNW) 08:44:05 145.90 MHz
SO-67 01 Nov 08:52:50 08:56:11 50° 286° (WNW) 08:59:32 435.3500 MHz FM
Sapphire 01 Nov 09:39:34 09:41:47 12° 31° (NNE) 09:43:59 437.095 MHz 1200 baud AX-25 AFSK
KITSAT 1 01 Nov 10:00:02 10:05:38 21° 102° (ESE) 10:11:14 435.175 FM
PCSat 01 Nov 10:00:26 10:03:53 17° 37° (NE) 10:07:20 145.825 MHz
HO-68 01 Nov 10:06:27 10:13:28 52° 101° (E) 10:20:24 435.675 MHz FM
ISS 01 Nov 10:25:23 10:28:29 38° 141° (SE) 10:31:36 145.800 FM
UKube-1 01 Nov 10:48:24 10:52:35 43° 99° (E) 10:56:43 145.840 MHz, 145.915 MHz
ZACube-1 01 Nov 10:59:41 11:03:06 24° 94° (E) 11:06:29 437.345 MHz
Sapphire 01 Nov 11:21:16 11:26:34 49° 53° (NE) 11:31:49 437.095 MHz 1200 baud AX-25 AFSK
Oscar 11 01 Nov 11:22:27 11:26:46 80° 284° (WNW) 11:31:05 145.825 FM, Beacon 2401.500 USB
SO-50 01 Nov 11:38:07 11:42:33 62° 121° (ESE) 11:47:09 436.795 FM
FUNcube-1 01 Nov 11:41:46 11:45:58 70° 102° (ESE) 11:50:05 145.950 - 145.970 MHz USB
PCSat 01 Nov 11:42:47 11:48:14 77° 58° (ENE) 11:53:39 145.825 MHz
KITSAT 1 01 Nov 11:51:54 12:00:00 88° 302° (WNW) 12:08:09 435.175 FM
HO-68 01 Nov 11:54:35 12:00:55 35° 300° (WNW) 12:07:13 435.675 MHz FM
ISS 01 Nov 12:02:02 12:05:11 38° 339° (NNW) 12:08:20 145.800 FM
JAS-1B 01 Nov 12:09:24 12:10:06 10° 50° (NE) 12:10:48 435.800 - 435.900 CW/SSB
UOSAT-12 01 Nov 12:18:10 12:21:08 17° 110° (ESE) 12:24:08 437.025 FM, 437.400 FM
UKube-1 01 Nov 12:25:17 12:28:28 20° 296° (WNW) 12:31:38 145.840 MHz, 145.915 MHz
ZACube-1 01 Nov 12:35:51 12:39:32 30° 292° (WNW) 12:43:10 437.345 MHz
Saudisat 1A 01 Nov 12:43:47 12:44:53 11° 29° (NNE) 12:45:59 436.775 MHz
Oscar 19 01 Nov 12:52:38 12:56:29 22° 62° (ENE) 13:00:20 437.125 CW, 437.150 USB
Sapphire 01 Nov 13:05:14 13:09:42 26° 251° (WSW) 13:14:08 437.095 MHz 1200 baud AX-25 AFSK
SO-50 01 Nov 13:19:58 13:23:32 22° 321° (NW) 13:27:11 436.795 FM
FUNcube-1 01 Nov 13:20:09 13:21:46 12° 299° (WNW) 13:23:22 145.950 - 145.970 MHz USB
PCSat 01 Nov 13:27:45 13:30:58 16° 256° (WSW) 13:34:11 145.825 MHz
AO-27 01 Nov 13:31:37 13:35:31 22° 62° (ENE) 13:39:26 436.795 MHz FM
Oscar 16 01 Nov 13:38:26 13:43:27 55° 71° (ENE) 13:48:28 437.025 USB, Beacon 2401.1428
ISS 01 Nov 13:39:50 13:42:30 22° 359° (N) 13:45:10 145.800 FM
KITSAT 1 01 Nov 13:49:49 13:56:32 28° 326° (NW) 14:03:18 435.175 FM
Gurwin Techsat 1B 01 Nov 13:53:37 13:57:13 19° 60° (ENE) 14:00:49 435.225 FM
JAS-1B 01 Nov 13:53:56 13:59:35 68° 72° (ENE) 14:05:20 435.800 - 435.900 CW/SSB
UOSAT-12 01 Nov 13:56:09 14:00:46 64° 308° (NW) 14:05:29 437.025 FM, 437.400 FM
TMSAT-1 01 Nov 13:59:49 14:02:57 16° 59° (ENE) 14:06:06 436.925 FM
AO-Echo 01 Nov 14:04:38 14:09:27 49° 70° (ENE) 14:14:28 ?
AO-7 01 Nov 14:05:18 14:08:54 14° 40° (NE) 14:12:30 29.400 - 29.500 MHz
Uribyol 2 01 Nov 14:13:22 14:18:24 50° 70° (ENE) 14:23:27 436.500 FM
Saudisat 1A 01 Nov 14:21:14 14:25:32 47° 50° (NE) 14:29:48 436.775 MHz
ITAMSAT 1 01 Nov 14:21:33 14:26:38 56° 71° (ENE) 14:31:46 435.822 SSB
Oscar 19 01 Nov 14:30:27 14:35:28 53° 260° (W) 14:40:29 437.125 CW, 437.150 USB
AO-27 01 Nov 15:09:32 15:14:38 55° 259° (W) 15:19:48 436.795 MHz FM
ISS 01 Nov 15:16:46 15:19:51 33° 19° (NNE) 15:22:56 145.800 FM
Oscar 16 01 Nov 15:19:28 15:23:08 20° 268° (W) 15:26:49 437.025 USB, Beacon 2401.1428
Gurwin Techsat 1B 01 Nov 15:31:23 15:36:39 67° 258° (WSW) 15:41:58 435.225 FM
TMSAT-1 01 Nov 15:36:54 15:42:13 79° 257° (WSW) 15:47:33 436.925 FM
UOSAT-12 01 Nov 15:39:19 15:41:51 14° 329° (NNW) 15:44:25 437.025 FM, 437.400 FM
AO-Echo 01 Nov 15:44:41 15:48:30 22° 268° (W) 15:52:26 ?
JAS-1B 01 Nov 15:47:40 15:51:00 16° 271° (W) 15:54:21 435.800 - 435.900 CW/SSB
KITSAT 1 01 Nov 15:50:56 15:55:15 15° 355° (N) 15:59:33 435.175 FM
AO-7 01 Nov 15:51:54 15:59:48 52° 63° (ENE) 16:07:44 29.400 - 29.500 MHz
Uribyol 2 01 Nov 15:54:08 15:58:08 22° 267° (W) 16:02:09 436.500 FM
Uosat F 01 Nov 15:57:57 16:02:07 27° 64° (ENE) 16:06:19 435.120 FM
Saudisat 1A 01 Nov 16:01:27 16:04:48 21° 247° (WSW) 16:08:07 436.775 MHz
ITAMSAT 1 01 Nov 16:02:44 16:06:29 20° 268° (W) 16:10:15 435.822 SSB
JAS-2 01 Nov 16:45:04 16:50:32 29° 59° (ENE) 16:56:31 435.800 - 435.900 CW/SSB, 435.910 FM
ISS 01 Nov 16:53:24 16:56:39 50° 217° (SW) 16:59:54 145.800 FM
Uosat F 01 Nov 17:36:00 17:40:43 40° 262° (W) 17:45:28 435.120 FM
AO-7 01 Nov 17:45:13 17:52:46 39° 262° (W) 18:00:24 29.400 - 29.500 MHz
KITSAT 1 01 Nov 17:48:29 17:54:22 21° 26° (NNE) 18:00:14 435.175 FM
Hamsat 01 Nov 17:56:41 18:00:41 48° 72° (ENE) 18:04:43 145.90 MHz
OPAL 01 Nov 18:08:02 18:12:15 28° 97° (E) 18:16:28 ?
SO-50 01 Nov 18:28:33 18:31:47 18° 35° (NE) 18:35:03 436.795 FM
JAS-2 01 Nov 18:28:43 18:35:00 60° 261° (W) 18:42:10 435.800 - 435.900 CW/SSB, 435.910 FM
Oscar 10/S400 01 Nov 19:05:53 19:30:42 53° 186° (S) 02:32:41 145.825 - 145.975 CW/USB, Beacon 145.810 USB
AO-40 01 Nov 19:16:07 22:31:26 33° 195° (SSW) 02:35:28 Beacon 2401.320
SO-67 01 Nov 19:26:20 19:29:42 60° 75° (ENE) 19:33:07 435.3500 MHz FM
Hamsat 01 Nov 19:34:26 19:36:55 15° 269° (W) 19:39:24 145.90 MHz
KITSAT 1 01 Nov 19:43:38 19:51:38 60° 51° (NE) 19:59:35 435.175 FM
OPAL 01 Nov 19:46:40 19:51:13 37° 295° (WNW) 19:55:44 ?
STRAND 1 01 Nov 20:06:02 20:11:07 57° 101° (E) 20:16:09 ?
SO-50 01 Nov 20:08:11 20:13:04 85° 55° (NE) 20:17:58 436.795 FM
RS-15 01 Nov 20:15:24 20:24:10 29° 104° (ESE) 20:32:51 29.354 - 29.394 USB, Beacon 29.352 USB
HO-68 01 Nov 20:36:28 20:43:11 46° 64° (ENE) 20:49:57 435.675 MHz FM
UOSAT-12 01 Nov 20:44:45 20:48:47 27° 42° (NE) 20:52:46 437.025 FM, 437.400 FM
Oscar 11 01 Nov 20:46:27 20:47:26 11° 59° (ENE) 20:48:25 145.825 FM, Beacon 2401.500 USB
KITSAT 1 01 Nov 21:39:34 21:46:39 35° 252° (WSW) 21:53:43 435.175 FM
MaSat-1 01 Nov 21:42:15 21:44:59 19° 109° (ESE) 21:47:33 437.345 MHz
UKube-1 01 Nov 21:45:05 21:49:14 45° 71° (ENE) 21:53:25 145.840 MHz, 145.915 MHz
STRAND 1 01 Nov 21:46:09 21:49:53 21° 299° (WNW) 21:53:37 ?
SO-50 01 Nov 21:50:41 21:52:58 13° 252° (WSW) 21:55:15 436.795 FM
ZACube-1 01 Nov 21:57:27 22:01:10 26° 67° (ENE) 22:04:51 437.345 MHz
Oscar 11 01 Nov 22:18:37 22:22:56 86° 256° (WSW) 22:27:17 145.825 FM, Beacon 2401.500 USB
RS-15 01 Nov 22:24:18 22:35:18 81° 306° (NW) 22:46:20 29.354 - 29.394 USB, Beacon 29.352 USB
HO-68 01 Nov 22:24:24 22:30:58 38° 263° (W) 22:37:36 435.675 MHz FM
UOSAT-12 01 Nov 22:24:37 22:29:10 49° 241° (WSW) 22:33:37 437.025 FM, 437.400 FM
FUNcube-1 01 Nov 22:39:02 22:43:31 68° 74° (ENE) 22:47:55 145.950 - 145.970 MHz USB
MaSat-1 01 Nov 23:16:47 23:20:11 32° 302° (WNW) 23:23:17 437.345 MHz
UKube-1 01 Nov 23:22:41 23:25:39 18° 267° (W) 23:28:38 145.840 MHz, 145.915 MHz
ZACube-1 01 Nov 23:33:22 23:37:27 33° 263° (W) 23:41:28 437.345 MHz
FUNcube-1 02 Nov 00:18:24 00:20:18 12° 271° (W) 00:22:12 145.950 - 145.970 MHz USB
RS-15 02 Nov 00:40:05 00:49:35 33° 335° (NNW) 00:59:14 29.354 - 29.394 USB, Beacon 29.352 USB
JAS-1B 02 Nov 01:35:05 01:40:22 20° 91° (E) 01:46:14 435.800 - 435.900 CW/SSB
Oscar 16 02 Nov 01:49:45 01:53:02 17° 91° (E) 01:56:19 437.025 USB, Beacon 2401.1428
Sapphire 02 Nov 01:05:02 01:09:46 32° 110° (ESE) 01:14:33 437.095 MHz 1200 baud AX-25 AFSK
AO-Echo 02 Nov 01:11:42 01:14:45 15° 89° (E) 01:17:46 ?
PCSat 02 Nov 01:25:53 01:31:07 52° 115° (ESE) 01:36:22 145.825 MHz
Uribyol 2 02 Nov 01:25:57 01:29:00 16° 90° (E) 01:32:03 436.500 FM
ITAMSAT 1 02 Nov 01:34:03 01:37:30 18° 91° (E) 01:40:55 435.822 SSB
Oscar 19 02 Nov 01:40:23 01:45:21 48° 99° (E) 01:50:18 437.125 CW, 437.150 USB
RS-15 02 Nov 01:57:41 02:06:29 26° 10° (N) 02:15:29 29.354 - 29.394 USB, Beacon 29.352 USB
AO-27 02 Nov 02:21:00 02:26:04 47° 99° (E) 02:31:04 436.795 MHz FM
JAS-1B 02 Nov 02:24:16 02:31:27 85° 286° (WNW) 02:40:04 435.800 - 435.900 CW/SSB
Oscar 16 02 Nov 02:27:45 02:32:49 63° 288° (WNW) 02:37:52 437.025 USB, Beacon 2401.1428
Gurwin Techsat 1B 02 Nov 02:46:09 02:51:14 44° 98° (E) 02:56:17 435.225 FM
Sapphire 02 Nov 02:47:57 02:53:04 42° 309° (NW) 02:58:13 437.095 MHz 1200 baud AX-25 AFSK
AO-Echo 02 Nov 02:48:44 02:54:04 74° 286° (WNW) 02:59:18 ?
TMSAT-1 02 Nov 02:51:28 02:56:23 37° 97° (E) 03:01:15 436.925 FM
AO-7 02 Nov 02:54:34 02:57:53 13° 85° (E) 03:01:11 29.400 - 29.500 MHz
Uribyol 2 02 Nov 03:03:49 03:09:00 69° 287° (WNW) 03:14:08 436.500 FM
PCSat 02 Nov 03:10:09 03:14:48 28° 314° (NW) 03:19:29 145.825 MHz
ITAMSAT 1 02 Nov 03:12:16 03:17:25 62° 288° (WNW) 03:22:32 435.822 SSB
Oscar 19 02 Nov 03:20:25 03:24:23 23° 297° (WNW) 03:28:22 437.125 CW, 437.150 USB
